Location: Cran-Gévrier
(45.9039°N, 6.1012°E)
Time: 20:00:44
(UTC+00:00)

PCSat - Pass Details

Date: 08 December 2023
Orbit: 784 x 791 km, 67.0° (Epoch: 29 February)

Event Time Altitude Azimuth Distance (km) Brightness Sun altitude
Exits shadow 05:55:41 11° 320° (NW) 2,272 11.4 -11.4°
Maximum altitude 05:56:59 12° 335° (NNW) 2,214 11.5 -11.2°
Drops below altitude 10° 05:59:04 10° 357° (N) 2,360 11.8 -10.9°
Sets 06:03:14 0° 28° (NNE) 3,294 12.9 -10.2°
